Location: Hilton Head Island
(32.2163°N, 80.7526°W)
Time: 08:40:46
(UTC-04:00)

Tiros 1 despin weight - Pass Details

Date: 20 February 2026
Orbit: 555 x 593 km, 48.2° (Epoch: 17 March)

Event Time Altitude Azimuth Distance (km) Brightness Sun altitude
Rises 11:56:34 0° 186° (S) 2,755 ? 46.0°
Reaches altitude 10° 11:59:48 10° 160° (SSE) 1,853 ? 46.2°
Maximum altitude 12:01:59 14° 129° (SE) 1,617 ? 46.3°
Drops below altitude 10° 12:04:09 10° 98° (E) 1,847 ? 46.3°
Sets 12:07:21 0° 72° (ENE) 2,739 ? 46.5°
